Overview Statistics Trail Chart Weather Telemetry Raw packets
 

This is the latest recevied weather packets stored in our database for station/object K0APR. If no packets are shown the sender has not sent any weather packets the latest 10 day(s).

<< 87 88 89 90 91 92 93 >>
Time Temp. Humidity Pressure Rain* Wind** Luminosity Snow
1788028107 28.33° C 64% 1008.8 hPa 0 mm - 225 W/m² -
1788027807 27.78° C 66% 1008.4 hPa 0 mm - 221 W/m² -
1788027506 28.33° C 65% 1008.8 hPa 0 mm - 210 W/m² -
1788027201 27.78° C 64% 1008.8 hPa 0 mm - 208 W/m² -
1788026901 29.44° C 62% 1008.4 hPa 0 mm - 239 W/m² -
1788026597 28.89° C 63% 1008.8 hPa 0 mm - 420 W/m² -
1788026296 28.89° C 63% 1008.8 hPa 0 mm - 670 W/m² -
1788025992 28.89° C 63% 1008.8 hPa 0 mm - 647 W/m² -
1788025691 28.33° C 65% 1008.8 hPa 0 mm - 310 W/m² -
1788025390 28.33° C 64% 1008.8 hPa 0 mm - 327 W/m² -
1788025086 27.78° C 65% 1008.8 hPa 0 mm - 460 W/m² -
1788024785 27.78° C 66% 1009.2 hPa 0 mm - 282 W/m² -
1788024482 27.78° C 67% 1009.2 hPa 0 mm - 285 W/m² -
1788024181 28.33° C 65% 1008.8 hPa 0 mm - 766 W/m² -
1788023877 28.33° C 66% 1009.2 hPa 0 mm - 472 W/m² -
1788023572 28.33° C 64% 1009.2 hPa 0 mm - 360 W/m² -
1788023267 27.78° C 64% 1009.2 hPa 0 mm - 387 W/m² -
1788022963 27.22° C 66% 1009.2 hPa 0 mm - 356 W/m² -
1788022660 27.78° C 64% 1009.5 hPa 0 mm - 444 W/m² -
1788022359 27.78° C 65% 1009.5 hPa 0 mm - 327 W/m² -
1788022058 28.33° C 64% 1009.5 hPa 0 mm - 284 W/m² -
1788021753 28.33° C 63% 1009.8 hPa 0 mm - 453 W/m² -
1788021451 27.78° C 64% 1009.5 hPa 0 mm - 452 W/m² -
1788021146 27.78° C 64% 1009.5 hPa 0 mm - 835 W/m² -
1788020841 26.67° C 66% 1009.5 hPa 0 mm - 754 W/m² -

* Rain latest hour (hover to see other rain measurements)
** Current wind speed in m/s (hover to see current wind gust speed)